Weather History for Peachtree City, GA

Change the Weather History Date:

Friday, October 28, 2011

  Actual Average Record
Temperature  
Mean Temperature 64 °F 58 °F  
Max Temperature 75 °F 71 °F 82 °F (2000)
Min Temperature 46 °F 45 °F 23 °F (2001)
Degree Days  
Heating Degree Days 1 8  
Month to date heating degree days 129  
Since 1 July heating degree days 142  
Cooling Degree Days 0 1  
Month to date cooling degree days 42  
Year to date cooling degree days 1650  
Growing Degree Days 14 (Base 50)    
Moisture  
Dew Point 52 °F    
Average Humidity 80    
Maximum Humidity 100    
Minimum Humidity 17    
Precipitation  
Precipitation 0.17 in 0.08 in 0.77 in (2010)
Month to date precipitation 3.18  
Year to date precipitation 41.75  
Sea Level Pressure  
Sea Level Pressure 29.95 in    
Wind  
Wind Speed 2 mph (NW)    
Max Wind Speed 12 mph    
Max Gust Speed -    
Visibility 9 miles    
Events Rain    
T = Trace of Precipitation, MM = Missing Value Source: NWS Daily Summary

Daily Weather History Graph

Daily Weather History Graph

Search for Another Location

Airport:

Trip Planner

Search our weather history database for the weather conditions in past years. The results will help you decide how hot, cold, wet, or windy it might be!

Date:

Astronomy

Oct. 28, 2011 Rise Set
Actual Time 7:53 AM EDT 6:50 PM EDT
Civil Twilight 7:27 AM EDT 7:15 PM EDT
Nautical Twilight 6:58 AM EDT 7:45 PM EDT
Astronomical Twilight 6:29 AM EDT 8:14 PM EDT
Moon 9:59 AM EDT (10/28) 8:21 PM EDT (10/28)
Length of Visible Light 11h 48m
Length of Day
10h 57m
Waxing Crescent, 5% of the Moon is Illuminated
Oct 28
Waxing Crescent
Nov 2
First Quarter
Nov 10
Full
Nov 18
Last Quarter
Nov 25
New

Hourly Weather History & Observations

Time (EDT) Temp. Dew Point Humidity Pressure Visibility Wind Dir Wind Speed Gust Speed Precip Events Conditions
12:53 AM 52.0 °F 50.0 °F 93% 29.93 in 9.0 mi Calm Calm - N/A   Clear
1:53 AM 51.1 °F 48.9 °F 92% 29.93 in 8.0 mi Calm Calm - N/A   Clear
2:53 AM 52.0 °F 48.9 °F 89% 29.94 in 9.0 mi Calm Calm - N/A   Clear
3:53 AM 52.0 °F 50.0 °F 93% 29.94 in 10.0 mi NW 3.5 mph - N/A   Clear
4:53 AM 50.0 °F 48.9 °F 96% 29.93 in 8.0 mi Calm Calm - N/A   Clear
5:53 AM 48.9 °F 48.0 °F 97% 29.94 in 9.0 mi Calm Calm - N/A   Clear
6:53 AM 48.9 °F 46.9 °F 93% 29.97 in 10.0 mi Calm Calm - 0.01 in   Clear
7:53 AM 46.9 °F 46.0 °F 97% 29.98 in 8.0 mi Calm Calm - N/A   Clear
8:53 AM 52.0 °F 50.0 °F 93% 29.99 in 10.0 mi Calm Calm - N/A   Overcast
9:53 AM 57.9 °F 52.0 °F 81% 29.99 in 10.0 mi Calm Calm - N/A   Partly Cloudy
10:53 AM 64.0 °F 54.0 °F 70% 29.99 in 10.0 mi Calm Calm - N/A   Clear
11:53 AM 69.1 °F 55.0 °F 61% 29.97 in 10.0 mi Calm Calm - N/A   Mostly Cloudy
12:53 PM 73.0 °F 55.0 °F 53% 29.94 in 10.0 mi WNW 3.5 mph - N/A   Mostly Cloudy
1:53 PM 73.9 °F 54.0 °F 50% 29.91 in 10.0 mi Variable 3.5 mph - N/A   Mostly Cloudy
2:53 PM 75.0 °F 53.1 °F 46% 29.88 in 10.0 mi Variable 3.5 mph - N/A   Mostly Cloudy
3:53 PM 73.9 °F 54.0 °F 50% 29.88 in 10.0 mi WNW 3.5 mph - N/A   Overcast
4:53 PM 72.0 °F 55.0 °F 55% 29.88 in 10.0 mi Calm Calm - N/A   Overcast
5:53 PM 68.0 °F 57.9 °F 70% 29.89 in 10.0 mi Calm Calm - N/A   Overcast
6:53 PM 66.9 °F 59.0 °F 76% 29.91 in 10.0 mi Calm Calm - N/A   Overcast
6:56 PM 82.4 °F 33.8 °F 17% 29.98 in 50.0 mi SE 4.6 mph - N/A   Partly Cloudy
7:53 PM 66.0 °F 59.0 °F 78% 29.93 in 10.0 mi NW 10.4 mph - N/A   Overcast
8:49 PM 62.6 °F 60.8 °F 94% 29.94 in 7.0 mi NW 5.8 mph - 0.02 in Rain Light Rain
8:50 PM 63.0 °F 61.0 °F 93% 29.94 in 7.0 mi NW 5.8 mph - 0.02 in Rain Light Rain
9:53 PM 57.0 °F 55.0 °F 93% 29.95 in 10.0 mi NNW 6.9 mph - 0.05 in Rain Light Rain
10:24 PM 55.4 °F 53.6 °F 94% 29.98 in 1.8 mi NW 8.1 mph - 0.02 in Rain Heavy Rain
10:31 PM 53.6 °F 51.8 °F 94% 29.97 in 3.0 mi North 10.4 mph - 0.03 in Rain Light Rain
10:35 PM 53.6 °F 51.8 °F 94% 29.97 in 7.0 mi North 10.4 mph - 0.03 in Rain Light Rain
10:53 PM 53.1 °F 51.1 °F 93% 29.97 in 10.0 mi North 8.1 mph - 0.04 in Rain Light Rain
11:30 PM 51.8 °F 51.8 °F 100% 29.97 in 10.0 mi NNW 9.2 mph - 0.03 in Rain Light Rain
11:53 PM 51.1 °F 50.0 °F 96% 29.97 in 9.0 mi NNW 11.5 mph - 0.05 in   Overcast